Regional Weather Roundup
Issued by NWS

Home | Current Version | Previous Version | Graphics & Text | Print | Product List | Glossary Off
Versions: 1 2 3 4 5 6 7 8 9 10 11 12 13 14 15 16 17 18 19 20 21 22 23 24 25 26 27 28 29 30 31 32 33 34 35 36 37 38 39 40 41 42 43 44 45 46 47 48 49 50

000
ASUS43 KMKX 282200
RWRWI

WISCONSIN REGIONAL WEATHER ROUNDUP
NATIONAL WEATHER SERVICE MILWAUKEE/SULLIVAN WI
500 PM CDT SAT MAY 28 2016

NOTE: "FAIR" INDICATES FEW OR NO CLOUDS BELOW 12,000 FEET WITH NO
SIGNIFICANT WEATHER AND/OR OBSTRUCTIONS TO VISIBILITY.

WIZ001-002-006>008-014>016-023>028-282300-
NORTHWEST WISCONSIN

CITY           SKY/WX    TMP DP  RH WIND       PRES   REMARKS
SUPERIOR ARPT  CLOUDY    55  51  86 NE6       29.80S
ASHLAND        CLOUDY    60  54  80 NE7       29.79R
HAYWARD        CLOUDY    70  61  73 VRB5      29.78R
SIREN          RAIN      65  58  78 NW6       29.78S
CUMBERLAND     RAIN      64  61  88 SW5       29.78R
RICE LAKE      RAIN      69  63  81 CALM      29.78R
CHETEK         CLOUDY    71  64  78 SE5       29.77S
LADYSMITH      PTSUNNY   73  63  71 SW8       29.79R
EAU CLAIRE     NOT AVBL
MENOMONIE      PTSUNNY   76  72  88 S9        29.75S
NEW RICHMOND   CLOUDY    65  64  97 NW9       29.78R FOG
OSCEOLA        HVY RAIN  64  64 100 W5        29.80S
$$

WIZ003>005-009-010-017-018-282300-
NORTH CENTRAL WISCONSIN

CITY           SKY/WX    TMP DP  RH WIND       PRES   REMARKS
MANITOWISH WTR NOT AVBL
ARBOR VITAE    RAIN      66  64  94 W7        29.79R
WOODRUFF       RAIN      66  64  94 W7        29.79R
RHINELANDER    CLOUDY    73  64  73 SW13      29.81R
EAGLE RIVER      N/A     70  65  84 SW9       29.78R
LAND O LAKES   PTSUNNY   73  65  75 SW7       29.77S
PHILLIPS       CLOUDY    67  65  96 S3        29.79S
TOMAHAWK       PTSUNNY   71  64  80 W6        29.81R
MEDFORD        PTSUNNY   71  64  78 SW9       29.80R
MERRILL        MOSUNNY   77  65  67 SW10G17   29.80R
$$

WIZ029-030-035-036-043>047-282300-
CENTRAL WISCONSIN

CITY           SKY/WX    TMP DP  RH WIND       PRES   REMARKS
WAUSAU         PTSUNNY   80  60  50 S13G20    29.78R HX  81
MOSINEE        NOT AVBL
MARSHFIELD     MOSUNNY   79  60  52 S12       29.78S HX  80
STEVENS POINT  MOSUNNY   78  59  52 SW16G22   29.81R
WAUPACA        MOSUNNY   83  62  47 S15G21    29.79F HX  84
WAUTOMA        SUNNY     82  63  52 SW14      29.79S HX  83
WISC RAPIDS    SUNNY     79  58  48 SW15G22   29.80S HX  80
CAMP DOUGLAS   NOT AVBL
$$

WIZ011>013-019>022-031-037>040-048>050-282300-
NORTHEAST WISCONSIN

CITY           SKY/WX    TMP DP  RH WIND       PRES   REMARKS
ANTIGO         MOSUNNY   75  62  63 S22       29.81R
SHAWANO        PTSUNNY   82  62  50 SW8       29.79S HX  82
OCONTO         CLOUDY    78  67  69 SE8       29.79F HX  80
STURGEON BAY   NOT AVBL
GREEN BAY      SUNNY     81  64  56 SW14G25   29.80S HX  82
MANITOWOC      NOT AVBL
APPLETON       PTSUNNY   81  59  47 S20       29.80S HX  81
CLINTONVILLE   PTSUNNY   81  61  50 S13       29.79S HX  81
OSHKOSH        MOSUNNY   81  61  50 SW15G26   29.81S HX  82
$$

WIZ032>034-041-042-053>061-282300-
SOUTHWEST WISCONSIN

CITY           SKY/WX    TMP DP  RH WIND       PRES   REMARKS
LA CROSSE      PTSUNNY   78  61  55 S9        29.75S HX  80
SPARTA         CLOUDY    77  61  56 S8        29.78S
VIROQUA        PTSUNNY   75  60  61 S8        29.79S
BOSCOBEL       LGT RAIN  76  66  71 S8        29.78R
PRAIRIE DU CHI CLOUDY    73  63  70 S8        29.78R
PLATTEVILLE    CLOUDY    64  64  97 W10G39    29.83R
$$

WIZ056-057-062-063-064-067-068-282300-
SOUTH CENTRAL WISCONSIN

CITY           SKY/WX    TMP DP  RH WIND       PRES   REMARKS
REEDSBURG      MOSUNNY   81  63  55 S10G16    29.78F HX  82
BARABOO/DELLS  SUNNY     81  60  48 S17G23    29.79F HX  81
LONE ROCK      NOT AVBL
MINERAL POINT  PTSUNNY   77  61  57 S22G36    29.79F
MADISON        PTSUNNY   82  62  50 S15       29.79F HX  83
MIDDLETON      MOSUNNY   83  61  48 S18       29.80F HX  83
WATERTOWN      MOSUNNY   81  62  52 SW17G24   29.83F HX  82
MONROE         MOSUNNY   81  59  47 S21G31    29.81F HX  81
JANESVILLE     PTSUNNY   82  61  47 S16       29.83S HX  83
$$

WIZ051-052-058>065-066-070>072-282300-
SOUTHEAST WISCONSIN

CITY           SKY/WX    TMP DP  RH WIND       PRES   REMARKS
MILWAUKEE      MOSUNNY   81  64  56 S20G28    29.86S HX  82
WAUKESHA       MOSUNNY   79  63  57 S16G24    29.86F HX  80
MILWAUKEE/TIMM MOSUNNY   81  59  47 S15G22    29.86S HX  81
RACINE         MOSUNNY   74  60  61 S15       29.89S
BURLINGTON     SUNNY     82  61  48 S15G23    29.86S HX  82
KENOSHA        MOSUNNY   81  64  56 S14G23    29.87S HX  82
FOND DU LAC    MOSUNNY   81  64  56 S15       29.81F HX  82
SHEBOYGAN      SUNNY     76  64  66 S18G26    29.84S
WEST BEND      MOSUNNY   81  63  54 S16       29.84F HX  82
JUNEAU         MOSUNNY   79  63  57 S16G23    29.84S HX  80
$$

LSZ147-162-282300-
LAKE SUPERIOR

STATION/POSITION TIME  TEMP    WIND        PRES    WAVE
                       AIR SEA DIR/SP/G            HT/PER
                 (UTC) (F)     (DEG/KT/KT) (MB)    (FT/S)
W MID LAKE BUOY  2050   41 38   90/  2/  4 1008.8R   1/ 4
DEVILS ISLAND    2100   45     260/  2/  3 1009.3R
SAXON HARBOR     2100   51     360/  2/  4 1008.1R
$$

LMZ867-665-643>646-282300-
LAKE MICHIGAN

STATION/POSITION TIME  TEMP    WIND        PRES    WAVE
                       AIR SEA DIR/SP/G            HT/PER
                 (UTC) (F)     (DEG/KT/KT) (MB)    (FT/S)
CHAMBERS ISLAND  2100   72     140/  7/ 16 1009.8
N MID LAKE BUOY  2050   54 46  190/ 17/ 21 1010.7F   4/ 5
NORTHPORT PIER   2100   66     160/ 10/ 19 1010.5S
SISTER BAY       2105   70     190/ 25/ 31   N/A
ALGOMA LAKESHORE 2117          220/  9/ 11   N/A
KEWAUNEE LAKESHO 2100   55     180/ 13/ 15 1010.3F
SHEBOYGAN LAKESH 2100   57     180/ 16/ 17 1011.2F
PORT WASHINGTON  2100   64     200/  7/ 12 1011.9
S MID LAKE BUOY  2050   56 50  150/ 10/ 14 1012.7F   1/ 4
KENOSHA   LAKESH 2100   60     170/ 13/ 16 1011.5F
$$

TC  - TEMPERATURE IN CELSIUS
VSB - VISIBILITY IN STATUTE MILES
WCI - WIND CHILL INDEX
HX  - HEAT INDEX





USA.gov is the U.S. government's official web portal to all federal, state and local government web resources and services.